Time,TemperatureF,DewpointF,PressureIn,WindDirection,WindDirectionDegrees,WindSpeedMPH,WindSpeedGustMPH,Humidity,HourlyPrecipIn,Conditions,Clouds,dailyrainin,SoftwareType,DateUTC
2013-08-23 00:01:00,73.4,53.6,29.93,NE,45,0.0,0.0,50,0.00,CLR,FEW,0.00,WeatherDisplay:10.37,2013-08-23 07:01:00,
2013-08-23 00:06:00,73.2,54.0,29.93,NE,45,0.0,0.0,51,0.00,CLR,FEW,0.00,WeatherDisplay:10.37,2013-08-23 07:06:00,
2013-08-23 00:11:00,73.2,54.0,29.92,NE,45,0.0,0.0,51,0.00,CLR,FEW,0.00,WeatherDisplay:10.37,2013-08-23 07:11:00,
2013-08-23 00:16:00,73.2,54.5,29.92,NW,315,0.0,0.0,52,0.00,CLR,FEW,0.00,WeatherDisplay:10.37,2013-08-23 07:16:00,
2013-08-23 00:21:00,73.0,54.4,29.92,WNW,292,0.0,0.0,52,0.00,CLR,FEW,0.00,WeatherDisplay:10.37,2013-08-23 07:21:00,
2013-08-23 00:26:00,73.0,54.9,29.92,SW,225,0.0,0.0,53,0.00,CLR,FEW,0.00,WeatherDisplay:10.37,2013-08-23 07:26:00,
2013-08-23 00:31:00,72.7,55.1,29.92,SSE,158,0.0,0.0,54,0.00,CLR,FEW,0.00,WeatherDisplay:10.37,2013-08-23 07:31:00,
2013-08-23 00:36:00,72.1,56.5,29.93,SE,135,1.1,1.1,58,0.00,CLR,FEW,0.00,WeatherDisplay:10.37,2013-08-23 07:36:00,
2013-08-23 00:41:00,71.2,57.1,29.92,SE,135,0.0,0.0,61,0.00,CLR,FEW,0.00,WeatherDisplay:10.37,2013-08-23 07:41:00,
2013-08-23 00:46:00,70.9,56.8,29.92,SSE,158,0.0,0.0,61,0.00,CLR,FEW,0.00,WeatherDisplay:10.37,2013-08-23 07:46:00,
2013-08-23 00:51:00,70.7,57.0,29.91,SSE,158,0.0,0.0,62,0.00,CLR,FEW,0.00,WeatherDisplay:10.37,2013-08-23 07:51:00,
2013-08-23 00:56:00,70.0,57.2,29.90,SSE,158,0.0,0.0,64,0.00,CLR,FEW,0.00,WeatherDisplay:10.37,2013-08-23 07:56:00,
2013-08-23 01:01:00,69.8,57.9,29.91,SSE,158,0.0,0.0,66,0.00,CLR,FEW,0.00,WeatherDisplay:10.37,2013-08-23 08:01:00,
2013-08-23 01:06:00,69.6,57.8,29.90,SSE,158,0.0,0.0,66,0.02,RA,FEW,0.02,WeatherDisplay:10.37,2013-08-23 08:06:00,
2013-08-23 01:11:00,69.1,58.9,29.86,ESE,112,3.5,3.5,70,0.02,RA,FEW,0.02,WeatherDisplay:10.37,2013-08-23 08:11:00,
2013-08-23 01:16:00,68.7,58.5,29.80,NE,45,12.7,12.7,70,0.02,,FEW,0.02,WeatherDisplay:10.37,2013-08-23 08:16:00,
2013-08-23 01:21:00,69.3,57.4,29.79,NE,45,12.7,12.7,66,0.02,CLR,FEW,0.02,WeatherDisplay:10.37,2013-08-23 08:21:00,
2013-08-23 01:26:00,69.3,58.7,29.82,SSE,158,15.0,15.0,69,0.02,CLR,FEW,0.02,WeatherDisplay:10.37,2013-08-23 08:26:00,
2013-08-23 01:31:00,69.1,57.7,29.81,SSE,158,9.2,9.2,67,0.02,CLR,FEW,0.02,WeatherDisplay:10.37,2013-08-23 08:31:00,
2013-08-23 01:36:00,69.6,57.8,29.82,South,180,25.3,25.3,66,0.02,CLR,FEW,0.02,WeatherDisplay:10.37,2013-08-23 08:36:00,
2013-08-23 01:41:00,69.8,57.5,29.84,South,180,18.4,18.4,65,0.02,CLR,FEW,0.02,WeatherDisplay:10.37,2013-08-23 08:41:00,
2013-08-23 01:46:00,70.2,57.0,29.84,West,270,6.5,6.5,63,0.02,CLR,FEW,0.02,WeatherDisplay:10.37,2013-08-23 08:46:00,
2013-08-23 01:51:00,70.3,57.1,29.84,West,270,5.8,5.8,63,0.02,CLR,FEW,0.02,WeatherDisplay:10.37,2013-08-23 08:51:00,
2013-08-23 01:56:00,70.3,57.1,29.85,WSW,248,6.9,0.0,63,0.02,CLR,FEW,0.02,WeatherDisplay:10.37,2013-08-23 08:56:00,
2013-08-23 02:01:00,70.0,56.8,29.86,SW,225,0.0,0.0,63,0.02,CLR,FEW,0.02,WeatherDisplay:10.37,2013-08-23 09:01:00,
2013-08-23 02:06:00,69.6,56.5,29.86,SSW,202,0.0,0.0,63,0.00,CLR,FEW,0.02,WeatherDisplay:10.37,2013-08-23 09:06:00,
2013-08-23 02:11:00,69.4,56.7,29.85,NNE,22,5.8,5.8,64,0.00,CLR,FEW,0.02,WeatherDisplay:10.37,2013-08-23 09:11:00,
2013-08-23 02:16:00,69.1,56.4,29.85,NNE,22,6.9,6.9,64,0.00,CLR,FEW,0.02,WeatherDisplay:10.37,2013-08-23 09:16:00,
2013-08-23 02:21:00,68.7,56.5,29.85,NNE,22,0.0,0.0,65,0.00,CLR,FEW,0.02,WeatherDisplay:10.37,2013-08-23 09:21:00,
2013-08-23 02:26:00,68.7,56.5,29.85,NNE,22,0.0,0.0,65,0.00,CLR,FEW,0.02,WeatherDisplay:10.37,2013-08-23 09:26:00,
2013-08-23 02:31:00,68.5,56.3,29.85,NNE,22,0.0,0.0,65,0.00,CLR,FEW,0.02,WeatherDisplay:10.37,2013-08-23 09:31:00,
2013-08-23 02:36:00,68.2,56.0,29.85,West,270,0.0,0.0,65,0.00,CLR,FEW,0.02,WeatherDisplay:10.37,2013-08-23 09:36:00,
2013-08-23 02:41:00,67.8,56.0,29.85,West,270,0.0,0.0,66,0.00,CLR,FEW,0.02,WeatherDisplay:10.37,2013-08-23 09:41:00,
2013-08-23 02:46:00,67.3,55.9,29.85,West,270,0.0,0.0,67,0.00,CLR,FEW,0.02,WeatherDisplay:10.37,2013-08-23 09:46:00,
2013-08-23 02:51:00,66.9,56.0,29.85,West,270,0.0,0.0,68,0.00,CLR,FEW,0.02,WeatherDisplay:10.37,2013-08-23 09:51:00,
2013-08-23 02:56:00,66.7,56.2,29.85,West,270,0.0,0.0,69,0.00,CLR,FEW,0.02,WeatherDisplay:10.37,2013-08-23 09:56:00,
2013-08-23 03:01:00,66.4,56.3,29.84,West,270,0.0,0.0,70,0.00,CLR,FEW,0.02,WeatherDisplay:10.37,2013-08-23 10:01:00,
2013-08-23 03:06:00,66.0,56.0,29.84,SSW,202,0.0,0.0,70,0.00,CLR,FEW,0.02,WeatherDisplay:10.37,2013-08-23 10:06:00,
2013-08-23 03:11:00,65.7,56.0,29.84,SSW,202,0.0,0.0,71,0.00,CLR,FEW,0.02,WeatherDisplay:10.37,2013-08-23 10:11:00,
2013-08-23 03:16:00,65.1,55.5,29.84,SSW,202,0.0,0.0,71,0.00,CLR,FEW,0.02,WeatherDisplay:10.37,2013-08-23 10:16:00,
2013-08-23 03:21:00,65.1,55.9,29.84,SSW,202,0.0,0.0,72,0.00,CLR,FEW,0.02,WeatherDisplay:10.37,2013-08-23 10:21:00,
2013-08-23 03:26:00,64.8,55.5,29.84,SSW,202,0.0,0.0,72,0.00,CLR,FEW,0.02,WeatherDisplay:10.37,2013-08-23 10:26:00,
2013-08-23 03:31:00,64.6,55.3,29.84,SSW,202,0.0,0.0,72,0.00,CLR,FEW,0.02,WeatherDisplay:10.37,2013-08-23 10:31:00,
2013-08-23 03:36:00,64.0,55.2,29.84,SSW,202,0.0,0.0,73,0.00,CLR,FEW,0.02,WeatherDisplay:10.37,2013-08-23 10:36:00,
2013-08-23 03:41:00,63.7,55.2,29.84,SSW,202,0.0,0.0,74,0.00,CLR,FEW,0.02,WeatherDisplay:10.37,2013-08-23 10:41:00,
2013-08-23 03:46:00,63.7,55.6,29.83,SSW,202,0.0,0.0,75,0.00,CLR,FEW,0.02,WeatherDisplay:10.37,2013-08-23 10:46:00,
2013-08-23 03:51:00,63.7,55.6,29.83,SSW,202,0.0,0.0,75,0.00,CLR,FEW,0.02,WeatherDisplay:10.37,2013-08-23 10:51:00,
2013-08-23 03:56:00,63.7,55.6,29.83,SSW,202,0.0,0.0,75,0.00,CLR,FEW,0.02,WeatherDisplay:10.37,2013-08-23 10:56:00,
2013-08-23 04:01:00,63.3,55.6,29.83,SSW,202,0.0,0.0,76,0.00,CLR,FEW,0.02,WeatherDisplay:10.37,2013-08-23 11:01:00,
2013-08-23 04:06:00,63.3,55.3,29.83,SSW,202,0.0,0.0,75,0.00,CLR,FEW,0.02,WeatherDisplay:10.37,2013-08-23 11:06:00,
2013-08-23 04:11:00,63.1,55.4,29.83,SSW,202,0.0,0.0,76,0.00,CLR,FEW,0.02,WeatherDisplay:10.37,2013-08-23 11:11:00,
2013-08-23 04:16:00,62.4,55.1,29.83,SSW,202,0.0,0.0,77,0.00,CLR,FEW,0.02,WeatherDisplay:10.37,2013-08-23 11:16:00,
2013-08-23 04:21:00,62.4,55.1,29.83,SSW,202,0.0,0.0,77,0.00,CLR,FEW,0.02,WeatherDisplay:10.37,2013-08-23 11:21:00,
2013-08-23 04:26:00,62.2,54.9,29.83,SSW,202,0.0,0.0,77,0.00,CLR,FEW,0.02,WeatherDisplay:10.37,2013-08-23 11:26:00,
2013-08-23 04:31:00,62.4,55.5,29.83,SSW,202,0.0,0.0,78,0.00,CLR,FEW,0.02,WeatherDisplay:10.37,2013-08-23 11:31:00,
2013-08-23 04:36:00,62.4,55.8,29.84,SW,225,0.0,0.0,79,0.00,CLR,FEW,0.02,WeatherDisplay:10.37,2013-08-23 11:36:00,
2013-08-23 04:41:00,62.4,55.8,29.84,SW,225,0.0,0.0,79,0.00,CLR,FEW,0.02,WeatherDisplay:10.37,2013-08-23 11:41:00,
2013-08-23 04:46:00,62.4,55.5,29.85,SW,225,0.0,0.0,78,0.00,CLR,FEW,0.02,WeatherDisplay:10.37,2013-08-23 11:46:00,
2013-08-23 04:51:00,62.4,55.8,29.87,SW,225,0.0,0.0,79,0.00,CLR,FEW,0.02,WeatherDisplay:10.37,2013-08-23 11:51:00,
2013-08-23 04:56:00,62.4,55.8,29.88,SE,135,5.8,5.8,79,0.00,CLR,FEW,0.02,WeatherDisplay:10.37,2013-08-23 11:56:00,
2013-08-23 05:01:00,62.2,56.3,29.84,NNE,22,6.9,7.2,81,0.00,CLR,FEW,0.02,WeatherDisplay:10.37,2013-08-23 12:01:00,
2013-08-23 05:06:00,62.4,56.5,29.81,WSW,248,13.8,13.8,81,0.00,CLR,FEW,0.02,WeatherDisplay:10.37,2013-08-23 12:06:00,
2013-08-23 05:11:00,62.8,56.9,29.82,West,270,7.4,7.4,81,0.00,CLR,FEW,0.02,WeatherDisplay:10.37,2013-08-23 12:11:00,
2013-08-23 05:16:00,62.8,56.9,29.82,West,270,4.6,4.6,81,0.00,CLR,FEW,0.02,WeatherDisplay:10.37,2013-08-23 12:16:00,
2013-08-23 05:21:00,63.0,57.0,29.83,ENE,68,6.9,6.9,81,0.00,CLR,FEW,0.02,WeatherDisplay:10.37,2013-08-23 12:21:00,
2013-08-23 05:26:00,62.8,56.9,29.84,ENE,68,4.6,4.6,81,0.00,CLR,FEW,0.02,WeatherDisplay:10.37,2013-08-23 12:26:00,
2013-08-23 05:31:00,62.8,56.9,29.84,ENE,68,3.5,3.5,81,0.00,CLR,FEW,0.02,WeatherDisplay:10.37,2013-08-23 12:31:00,
2013-08-23 05:36:00,62.8,56.5,29.84,SE,135,5.8,0.0,80,0.00,CLR,FEW,0.02,WeatherDisplay:10.37,2013-08-23 12:36:00,
2013-08-23 05:41:00,62.8,56.5,29.84,SE,135,0.0,0.0,80,0.00,CLR,FEW,0.02,WeatherDisplay:10.37,2013-08-23 12:41:00,
2013-08-23 05:46:00,62.8,56.5,29.84,SE,135,0.0,0.0,80,0.00,CLR,FEW,0.02,WeatherDisplay:10.37,2013-08-23 12:46:00,
2013-08-23 05:51:00,62.8,56.2,29.84,West,270,2.3,2.5,79,0.00,CLR,FEW,0.02,WeatherDisplay:10.37,2013-08-23 12:51:00,
2013-08-23 05:56:00,62.8,56.5,29.84,WNW,292,0.0,0.0,80,0.00,CLR,FEW,0.02,WeatherDisplay:10.37,2013-08-23 12:56:00,
2013-08-23 06:01:00,62.8,56.5,29.84,WNW,292,1.1,1.1,80,0.00,CLR,FEW,0.02,WeatherDisplay:10.37,2013-08-23 13:01:00,
2013-08-23 06:06:00,62.6,56.0,29.84,WNW,292,0.0,0.0,79,0.00,CLR,FEW,0.02,WeatherDisplay:10.37,2013-08-23 13:06:00,
2013-08-23 06:11:00,62.4,55.8,29.83,WNW,292,0.0,0.0,79,0.00,CLR,FEW,0.02,WeatherDisplay:10.37,2013-08-23 13:11:00,
2013-08-23 06:16:00,62.2,55.6,29.84,WNW,292,0.0,0.0,79,0.00,CLR,FEW,0.02,WeatherDisplay:10.37,2013-08-23 13:16:00,
2013-08-23 06:21:00,61.9,55.3,29.83,WSW,248,0.0,0.0,79,0.00,CLR,FEW,0.02,WeatherDisplay:10.37,2013-08-23 13:21:00,
2013-08-23 06:26:00,61.7,55.1,29.84,WSW,248,0.0,0.0,79,0.00,CLR,FEW,0.02,WeatherDisplay:10.37,2013-08-23 13:26:00,
2013-08-23 06:31:00,61.5,54.9,29.84,SSW,202,0.0,0.0,79,0.00,CLR,FEW,0.02,WeatherDisplay:10.37,2013-08-23 13:31:00,
2013-08-23 06:36:00,61.3,55.1,29.84,SSW,202,0.0,0.0,80,0.00,CLR,FEW,0.02,WeatherDisplay:10.37,2013-08-23 13:36:00,
2013-08-23 06:41:00,61.3,55.1,29.84,SSW,202,0.0,0.0,80,0.00,CLR,FEW,0.02,WeatherDisplay:10.37,2013-08-23 13:41:00,
2013-08-23 06:46:00,61.3,55.1,29.85,SSW,202,0.0,0.0,80,0.00,CLR,FEW,0.02,WeatherDisplay:10.37,2013-08-23 13:46:00,
2013-08-23 06:51:00,61.3,55.1,29.85,SSW,202,0.0,0.0,80,0.00,CLR,FEW,0.02,WeatherDisplay:10.37,2013-08-23 13:51:00,
2013-08-23 06:56:00,61.3,55.5,29.85,SSW,202,0.0,0.0,81,0.00,CLR,FEW,0.02,WeatherDisplay:10.37,2013-08-23 13:56:00,
2013-08-23 07:01:00,61.5,55.6,29.85,SSW,202,0.0,0.0,81,0.00,CLR,FEW,0.02,WeatherDisplay:10.37,2013-08-23 14:01:00,
2013-08-23 07:06:00,61.9,56.0,29.85,SW,225,0.0,0.0,81,0.00,CLR,FEW,0.02,WeatherDisplay:10.37,2013-08-23 14:06:00,
2013-08-23 07:11:00,62.6,56.7,29.85,SW,225,0.0,0.0,81,0.00,CLR,FEW,0.02,WeatherDisplay:10.37,2013-08-23 14:11:00,
2013-08-23 07:16:00,63.1,57.2,29.85,SW,225,0.0,0.0,81,0.00,CLR,FEW,0.02,WeatherDisplay:10.37,2013-08-23 14:16:00,
2013-08-23 07:21:00,64.0,58.1,29.85,SW,225,0.0,0.0,81,0.00,CLR,FEW,0.02,WeatherDisplay:10.37,2013-08-23 14:21:00,
2013-08-23 07:26:00,64.6,58.3,29.85,SW,225,0.0,0.0,80,0.00,CLR,FEW,0.02,WeatherDisplay:10.37,2013-08-23 14:26:00,
2013-08-23 07:31:00,65.5,58.8,29.85,SW,225,0.0,0.0,79,0.00,CLR,FEW,0.02,WeatherDisplay:10.37,2013-08-23 14:31:00,
2013-08-23 07:36:00,65.8,58.8,29.85,SW,225,0.0,0.0,78,0.00,CLR,FEW,0.02,WeatherDisplay:10.37,2013-08-23 14:36:00,
2013-08-23 07:41:00,66.0,58.6,29.86,SW,225,0.0,0.0,77,0.00,CLR,FEW,0.02,WeatherDisplay:10.37,2013-08-23 14:41:00,
2013-08-23 07:46:00,66.4,58.9,29.85,SW,225,0.0,0.0,77,0.00,CLR,FEW,0.02,WeatherDisplay:10.37,2013-08-23 14:46:00,
2013-08-23 07:51:00,66.7,58.9,29.86,SW,225,0.0,0.0,76,0.00,CLR,FEW,0.02,WeatherDisplay:10.37,2013-08-23 14:51:00,
2013-08-23 07:56:00,67.3,59.1,29.86,SW,225,0.0,0.0,75,0.00,CLR,FEW,0.02,WeatherDisplay:10.37,2013-08-23 14:56:00,
2013-08-23 08:01:00,68.2,59.6,29.86,SW,225,0.0,0.0,74,0.00,CLR,FEW,0.02,WeatherDisplay:10.37,2013-08-23 15:01:00,
2013-08-23 08:06:00,68.5,59.5,29.86,SW,225,0.0,0.0,73,0.00,CLR,FEW,0.02,WeatherDisplay:10.37,2013-08-23 15:06:00,
2013-08-23 08:11:00,69.1,60.1,29.85,SW,225,0.0,0.0,73,0.00,CLR,FEW,0.02,WeatherDisplay:10.37,2013-08-23 15:11:00,
2013-08-23 08:16:00,69.3,59.8,29.85,SW,225,0.0,0.0,72,0.00,CLR,FEW,0.02,WeatherDisplay:10.37,2013-08-23 15:16:00,
2013-08-23 08:21:00,69.4,59.6,29.85,SW,225,0.0,0.0,71,0.00,CLR,FEW,0.02,WeatherDisplay:10.37,2013-08-23 15:21:00,
2013-08-23 08:32:00,69.6,59.8,29.84,NNE,22,4.6,4.6,71,0.00,RA,FEW,0.02,WeatherDisplay:10.37,2013-08-23 15:32:00,
2013-08-23 08:37:00,69.4,59.2,29.84,NNE,22,2.3,2.3,70,0.00,RA,FEW,0.02,WeatherDisplay:10.37,2013-08-23 15:37:00,
2013-08-23 08:42:00,69.8,59.6,29.84,NNE,22,0.0,0.0,70,0.00,CLR,FEW,0.02,WeatherDisplay:10.37,2013-08-23 15:42:00,
2013-08-23 08:47:00,70.0,59.7,29.83,NE,45,3.5,3.5,70,0.00,CLR,FEW,0.02,WeatherDisplay:10.37,2013-08-23 15:47:00,
2013-08-23 08:52:00,70.0,59.7,29.83,NNE,22,0.0,0.0,70,0.00,CLR,FEW,0.02,WeatherDisplay:10.37,2013-08-23 15:52:00,
2013-08-23 08:57:00,70.7,60.0,29.84,NNE,22,2.9,2.9,69,0.00,CLR,FEW,0.02,WeatherDisplay:10.37,2013-08-23 15:57:00,
2013-08-23 09:02:00,70.9,59.4,29.84,NNE,22,0.0,0.0,67,0.00,CLR,FEW,0.02,WeatherDisplay:10.37,2013-08-23 16:02:00,
2013-08-23 09:07:00,71.4,60.3,29.84,NNE,22,0.0,0.0,68,0.00,CLR,FEW,0.02,WeatherDisplay:10.37,2013-08-23 16:07:00,
2013-08-23 09:12:00,71.8,60.2,29.84,NNE,22,0.0,0.0,67,0.00,CLR,FEW,0.02,WeatherDisplay:10.37,2013-08-23 16:12:00,
2013-08-23 09:17:00,72.1,60.2,29.84,NNE,22,2.3,2.3,66,0.00,CLR,FEW,0.02,WeatherDisplay:10.37,2013-08-23 16:17:00,
2013-08-23 09:22:00,72.5,60.5,29.84,NE,45,3.5,3.5,66,0.00,CLR,FEW,0.02,WeatherDisplay:10.37,2013-08-23 16:22:00,
2013-08-23 09:27:00,72.5,60.1,29.84,NE,45,0.0,0.0,65,0.00,CLR,FEW,0.02,WeatherDisplay:10.37,2013-08-23 16:27:00,
2013-08-23 09:32:00,73.2,60.3,29.84,NE,45,0.0,0.0,64,0.00,CLR,FEW,0.02,WeatherDisplay:10.37,2013-08-23 16:32:00,
2013-08-23 09:37:00,73.6,60.6,29.84,NE,45,2.3,2.3,64,0.00,CLR,FEW,0.02,WeatherDisplay:10.37,2013-08-23 16:37:00,
2013-08-23 09:42:00,74.1,60.7,29.83,NE,45,0.0,0.0,63,0.00,CLR,FEW,0.02,WeatherDisplay:10.37,2013-08-23 16:42:00,
2013-08-23 09:47:00,74.5,60.6,29.83,NE,45,0.0,0.0,62,0.00,CLR,FEW,0.02,WeatherDisplay:10.37,2013-08-23 16:47:00,
2013-08-23 09:52:00,74.8,60.9,29.83,ENE,68,0.0,0.0,62,0.00,CLR,FEW,0.02,WeatherDisplay:10.37,2013-08-23 16:52:00,
2013-08-23 09:57:00,74.8,60.5,29.83,ESE,112,0.0,0.0,61,0.00,CLR,FEW,0.02,WeatherDisplay:10.37,2013-08-23 16:57:00,
2013-08-23 10:02:00,75.4,60.5,29.83,ESE,112,0.0,0.0,60,0.00,CLR,FEW,0.02,WeatherDisplay:10.37,2013-08-23 17:02:00,
2013-08-23 10:07:00,75.9,60.6,29.83,ESE,112,0.0,0.0,59,0.00,CLR,FEW,0.02,WeatherDisplay:10.37,2013-08-23 17:07:00,
2013-08-23 10:12:00,76.8,60.9,29.84,ESE,112,0.0,0.0,58,0.00,CLR,FEW,0.02,WeatherDisplay:10.37,2013-08-23 17:12:00,
2013-08-23 10:17:00,77.2,61.3,29.84,NNW,338,0.0,0.0,58,0.00,CLR,FEW,0.02,WeatherDisplay:10.37,2013-08-23 17:17:00,
2013-08-23 10:22:00,77.2,61.3,29.83,NNW,338,0.0,0.0,58,0.00,CLR,FEW,0.02,WeatherDisplay:10.37,2013-08-23 17:22:00,
2013-08-23 10:27:00,77.7,61.3,29.83,NNW,338,0.0,0.0,57,0.00,CLR,FEW,0.02,WeatherDisplay:10.37,2013-08-23 17:27:00,
2013-08-23 10:32:00,77.5,60.6,29.83,North,0,0.0,0.0,56,0.00,CLR,FEW,0.02,WeatherDisplay:10.37,2013-08-23 17:32:00,
2013-08-23 10:37:00,77.4,60.9,29.83,North,0,0.0,0.0,57,0.00,CLR,FEW,0.02,WeatherDisplay:10.37,2013-08-23 17:37:00,
2013-08-23 10:42:00,77.9,61.4,29.82,North,0,0.0,0.0,57,0.00,CLR,FEW,0.02,WeatherDisplay:10.37,2013-08-23 17:42:00,
2013-08-23 10:47:00,78.1,61.1,29.82,ENE,68,0.0,0.0,56,0.00,CLR,FEW,0.02,WeatherDisplay:10.37,2013-08-23 17:47:00,
2013-08-23 10:52:00,78.6,61.6,29.82,ENE,68,2.3,2.3,56,0.00,CLR,FEW,0.02,WeatherDisplay:10.37,2013-08-23 17:52:00,
2013-08-23 10:57:00,78.6,61.1,29.82,ENE,68,0.0,0.0,55,0.00,CLR,FEW,0.02,WeatherDisplay:10.37,2013-08-23 17:57:00,
2013-08-23 11:02:00,79.2,61.1,29.82,ENE,68,0.0,0.0,54,0.00,CLR,FEW,0.02,WeatherDisplay:10.37,2013-08-23 18:02:00,
2013-08-23 11:07:00,80.2,61.6,29.82,SE,135,0.0,0.0,53,0.00,CLR,FEW,0.02,WeatherDisplay:10.37,2013-08-23 18:07:00,
2013-08-23 11:12:00,80.8,62.1,29.82,ENE,68,0.0,0.0,53,0.00,CLR,FEW,0.02,WeatherDisplay:10.37,2013-08-23 18:12:00,
2013-08-23 11:17:00,81.3,62.0,29.81,NNE,22,2.3,2.3,52,0.00,CLR,FEW,0.02,WeatherDisplay:10.37,2013-08-23 18:17:00,
2013-08-23 11:22:00,81.7,61.8,29.82,NNW,338,4.6,4.6,51,0.00,CLR,FEW,0.02,WeatherDisplay:10.37,2013-08-23 18:22:00,
2013-08-23 11:27:00,81.7,61.2,29.82,ENE,68,3.5,3.5,50,0.00,CLR,FEW,0.02,WeatherDisplay:10.37,2013-08-23 18:27:00,
2013-08-23 11:32:00,81.3,60.9,29.82,ESE,112,2.3,2.3,50,0.00,CLR,FEW,0.02,WeatherDisplay:10.37,2013-08-23 18:32:00,
2013-08-23 11:37:00,81.3,60.9,29.81,ESE,112,3.6,3.6,50,0.00,CLR,FEW,0.02,WeatherDisplay:10.37,2013-08-23 18:37:00,
2013-08-23 11:42:00,81.7,60.7,29.81,ESE,112,3.5,3.5,49,0.00,CLR,FEW,0.02,WeatherDisplay:10.37,2013-08-23 18:42:00,
2013-08-23 11:47:00,82.0,60.4,29.81,ESE,112,2.3,2.3,48,0.00,CLR,FEW,0.02,WeatherDisplay:10.37,2013-08-23 18:47:00,
2013-08-23 11:52:00,82.2,60.6,29.80,ENE,68,3.8,3.8,48,0.00,CLR,FEW,0.02,WeatherDisplay:10.37,2013-08-23 18:52:00,
2013-08-23 11:57:00,82.2,60.0,29.80,ENE,68,3.6,3.6,47,0.00,CLR,FEW,0.02,WeatherDisplay:10.37,2013-08-23 18:57:00,
2013-08-23 12:04:00,82.8,60.5,29.79,East,90,2.3,2.7,47,0.00,CLR,FEW,0.02,WeatherDisplay:10.37,2013-08-23 19:04:00,
2013-08-23 12:09:00,82.8,59.9,29.79,ENE,68,6.3,6.3,46,0.00,CLR,FEW,0.02,WeatherDisplay:10.37,2013-08-23 19:09:00,
2013-08-23 12:14:00,83.1,59.6,29.79,ESE,112,4.6,4.6,45,0.00,CLR,FEW,0.02,WeatherDisplay:10.37,2013-08-23 19:14:00,
2013-08-23 12:19:00,83.5,59.9,29.78,North,0,6.9,6.9,45,0.00,CLR,FEW,0.02,WeatherDisplay:10.37,2013-08-23 19:19:00,
2013-08-23 12:24:00,84.0,59.8,29.78,NNW,338,0.0,0.0,44,0.00,CLR,FEW,0.02,WeatherDisplay:10.37,2013-08-23 19:24:00,
2013-08-23 12:29:00,84.7,60.4,29.78,NW,315,4.6,4.6,44,0.00,CLR,FEW,0.02,WeatherDisplay:10.37,2013-08-23 19:29:00,
2013-08-23 12:34:00,85.3,60.3,29.78,NNW,338,4.6,4.6,43,0.00,CLR,FEW,0.02,WeatherDisplay:10.37,2013-08-23 19:34:00,
2013-08-23 12:39:00,85.5,59.8,29.78,East,90,3.5,3.5,42,0.00,CLR,FEW,0.02,WeatherDisplay:10.37,2013-08-23 19:39:00,
2013-08-23 12:44:00,85.3,59.6,29.78,ESE,112,1.1,1.1,42,0.00,CLR,FEW,0.02,WeatherDisplay:10.37,2013-08-23 19:44:00,
2013-08-23 12:49:00,85.5,59.8,29.77,SE,135,4.6,4.6,42,0.00,CLR,FEW,0.02,WeatherDisplay:10.37,2013-08-23 19:49:00,
2013-08-23 12:54:00,85.6,59.9,29.77,ESE,112,2.3,2.3,42,0.00,CLR,FEW,0.02,WeatherDisplay:10.37,2013-08-23 19:54:00,
2013-08-23 12:59:00,86.2,60.4,29.77,ENE,68,1.1,1.1,42,0.00,CLR,FEW,0.02,WeatherDisplay:10.37,2013-08-23 19:59:00,
2013-08-23 13:04:00,86.4,59.9,29.77,East,90,6.9,6.9,41,0.00,CLR,FEW,0.02,WeatherDisplay:10.37,2013-08-23 20:04:00,
2013-08-23 13:09:00,86.4,58.5,29.77,East,90,0.0,0.0,39,0.00,CLR,FEW,0.02,WeatherDisplay:10.37,2013-08-23 20:09:00,
2013-08-23 13:14:00,86.9,59.0,29.76,WSW,248,5.8,5.8,39,0.00,CLR,FEW,0.02,WeatherDisplay:10.37,2013-08-23 20:14:00,
2013-08-23 13:19:00,87.4,58.7,29.76,NW,315,0.4,0.4,38,0.00,CLR,FEW,0.02,WeatherDisplay:10.37,2013-08-23 20:19:00,
2013-08-23 13:24:00,87.8,58.3,29.76,SSW,202,0.0,0.0,37,0.00,CLR,FEW,0.02,WeatherDisplay:10.37,2013-08-23 20:24:00,
2013-08-23 13:29:00,87.8,59.0,29.75,SW,225,4.7,4.7,38,0.00,CLR,FEW,0.02,WeatherDisplay:10.37,2013-08-23 20:29:00,
2013-08-23 13:34:00,88.3,58.8,29.75,WSW,248,0.0,0.0,37,0.00,CLR,FEW,0.02,WeatherDisplay:10.37,2013-08-23 20:34:00,
2013-08-23 13:39:00,88.9,59.2,29.75,SE,135,4.7,4.7,37,0.00,CLR,FEW,0.02,WeatherDisplay:10.37,2013-08-23 20:39:00,
2013-08-23 13:44:00,88.5,58.2,29.75,SE,135,6.9,6.9,36,0.00,CLR,FEW,0.02,WeatherDisplay:10.37,2013-08-23 20:44:00,
2013-08-23 13:49:00,88.3,58.0,29.75,ENE,68,6.0,6.0,36,0.00,CLR,FEW,0.02,WeatherDisplay:10.37,2013-08-23 20:49:00,
2013-08-23 13:54:00,88.2,57.8,29.74,East,90,4.6,4.6,36,0.00,CLR,FEW,0.02,WeatherDisplay:10.37,2013-08-23 20:54:00,
2013-08-23 13:59:00,88.2,57.8,29.74,SSE,158,6.9,6.9,36,0.00,CLR,FEW,0.02,WeatherDisplay:10.37,2013-08-23 20:59:00,
2013-08-23 14:04:00,88.2,57.8,29.74,SE,135,5.1,5.1,36,0.00,CLR,FEW,0.02,WeatherDisplay:10.37,2013-08-23 21:04:00,
2013-08-23 14:09:00,88.3,58.0,29.74,East,90,3.8,3.8,36,0.00,CLR,FEW,0.02,WeatherDisplay:10.37,2013-08-23 21:09:00,
2013-08-23 14:20:00,88.2,57.1,29.74,SE,135,3.5,3.5,35,0.00,CLR,FEW,0.02,WeatherDisplay:10.37,2013-08-23 21:20:00,
2013-08-23 14:25:00,88.0,57.7,29.74,SE,135,0.0,0.0,36,0.00,CLR,FEW,0.02,WeatherDisplay:10.37,2013-08-23 21:25:00,
2013-08-23 14:30:00,88.3,57.2,29.74,NNE,22,0.0,0.0,35,0.00,CLR,FEW,0.02,WeatherDisplay:10.37,2013-08-23 21:30:00,
2013-08-23 14:35:00,88.5,57.4,29.73,NW,315,9.2,9.2,35,0.00,CLR,FEW,0.02,WeatherDisplay:10.37,2013-08-23 21:35:00,
2013-08-23 14:40:00,88.3,57.2,29.73,NNW,338,17.3,17.3,35,0.00,CLR,FEW,0.02,WeatherDisplay:10.37,2013-08-23 21:40:00,
2013-08-23 14:45:00,88.5,58.2,29.73,NW,315,0.0,0.0,36,0.00,CLR,FEW,0.02,WeatherDisplay:10.37,2013-08-23 21:45:00,
2013-08-23 14:50:00,88.5,57.4,29.73,NW,315,17.3,17.3,35,0.00,CLR,FEW,0.02,WeatherDisplay:10.37,2013-08-23 21:50:00,
2013-08-23 14:55:00,88.5,57.4,29.73,NNW,338,12.1,12.1,35,0.00,CLR,FEW,0.02,WeatherDisplay:10.37,2013-08-23 21:55:00,
2013-08-23 15:00:00,88.7,57.5,29.73,West,270,7.6,7.6,35,0.00,CLR,FEW,0.02,WeatherDisplay:10.37,2013-08-23 22:00:00,
2013-08-23 15:05:00,88.5,57.4,29.73,West,270,10.4,10.4,35,0.00,CLR,FEW,0.02,WeatherDisplay:10.37,2013-08-23 22:05:00,
2013-08-23 15:10:00,88.5,57.4,29.73,NW,315,8.1,8.1,35,0.00,CLR,FEW,0.02,WeatherDisplay:10.37,2013-08-23 22:10:00,
2013-08-23 15:15:00,88.5,57.4,29.72,NNW,338,16.1,16.1,35,0.00,CLR,FEW,0.02,WeatherDisplay:10.37,2013-08-23 22:15:00,
2013-08-23 15:20:00,88.5,56.6,29.72,NW,315,8.1,8.1,34,0.00,CLR,FEW,0.02,WeatherDisplay:10.37,2013-08-23 22:20:00,
2013-08-23 15:25:00,88.3,56.4,29.72,NW,315,8.1,8.1,34,0.00,CLR,FEW,0.02,WeatherDisplay:10.37,2013-08-23 22:25:00,
2013-08-23 15:30:00,88.7,56.7,29.72,NW,315,6.5,6.5,34,0.00,CLR,FEW,0.02,WeatherDisplay:10.37,2013-08-23 22:30:00,
2013-08-23 15:35:00,89.1,57.0,29.72,NNW,338,8.1,8.6,34,0.00,CLR,FEW,0.02,WeatherDisplay:10.37,2013-08-23 22:35:00,
2013-08-23 15:40:00,89.2,56.4,29.72,NW,315,12.7,12.7,33,0.00,CLR,FEW,0.02,WeatherDisplay:10.37,2013-08-23 22:40:00,
2013-08-23 15:45:00,89.2,56.4,29.72,NW,315,4.6,5.1,33,0.00,CLR,FEW,0.02,WeatherDisplay:10.37,2013-08-23 22:45:00,
2013-08-23 15:50:00,88.5,55.7,29.72,NW,315,8.3,8.3,33,0.00,CLR,FEW,0.02,WeatherDisplay:10.37,2013-08-23 22:50:00,
2013-08-23 15:55:00,88.2,55.4,29.72,West,270,8.1,8.1,33,0.00,CLR,FEW,0.02,WeatherDisplay:10.37,2013-08-23 22:55:00,
2013-08-23 16:00:00,88.3,55.6,29.72,WNW,292,5.8,5.8,33,0.00,CLR,FEW,0.02,WeatherDisplay:10.37,2013-08-23 23:00:00,
2013-08-23 16:05:00,88.5,55.7,29.72,West,270,4.6,4.6,33,0.00,CLR,FEW,0.02,WeatherDisplay:10.37,2013-08-23 23:05:00,
2013-08-23 16:10:00,88.7,55.9,29.71,WNW,292,8.1,8.1,33,0.00,CLR,FEW,0.02,WeatherDisplay:10.37,2013-08-23 23:10:00,
2013-08-23 16:16:00,88.9,56.1,29.72,WNW,292,6.9,6.9,33,0.00,CLR,FEW,0.02,WeatherDisplay:10.37,2013-08-23 23:16:00,
2013-08-23 16:21:00,88.9,56.1,29.72,WNW,292,7.4,7.4,33,0.00,CLR,FEW,0.02,WeatherDisplay:10.37,2013-08-23 23:21:00,
2013-08-23 16:26:00,89.1,56.2,29.72,WNW,292,2.7,2.7,33,0.00,CLR,FEW,0.02,WeatherDisplay:10.37,2013-08-23 23:26:00,
2013-08-23 16:31:00,89.2,56.4,29.72,NW,315,4.6,4.6,33,0.00,CLR,FEW,0.02,WeatherDisplay:10.37,2013-08-23 23:31:00,
2013-08-23 16:36:00,89.2,55.5,29.72,NW,315,6.9,6.9,32,0.00,CLR,FEW,0.02,WeatherDisplay:10.37,2013-08-23 23:36:00,
2013-08-23 16:41:00,89.2,55.5,29.72,WNW,292,10.4,10.4,32,0.00,CLR,FEW,0.02,WeatherDisplay:10.37,2013-08-23 23:41:00,
2013-08-23 16:46:00,88.9,55.2,29.72,NW,315,8.1,8.1,32,0.00,CLR,FEW,0.02,WeatherDisplay:10.37,2013-08-23 23:46:00,
2013-08-23 16:51:00,89.1,55.4,29.72,West,270,6.9,6.9,32,0.00,CLR,FEW,0.02,WeatherDisplay:10.37,2013-08-23 23:51:00,
2013-08-23 16:56:00,88.9,55.2,29.72,WNW,292,13.8,13.8,32,0.00,CLR,FEW,0.02,WeatherDisplay:10.37,2013-08-23 23:56:00,
2013-08-23 17:01:00,88.9,56.1,29.72,NW,315,10.4,10.4,33,0.00,CLR,FEW,0.02,WeatherDisplay:10.37,2013-08-24 00:01:00,
2013-08-23 17:06:00,88.9,55.2,29.73,West,270,4.6,0.0,32,0.00,CLR,FEW,0.02,WeatherDisplay:10.37,2013-08-24 00:06:00,
2013-08-23 17:11:00,88.9,55.2,29.73,NNW,338,8.7,8.7,32,0.00,CLR,FEW,0.02,WeatherDisplay:10.37,2013-08-24 00:11:00,
2013-08-23 17:16:00,88.9,55.2,29.72,West,270,9.2,9.2,32,0.00,CLR,FEW,0.02,WeatherDisplay:10.37,2013-08-24 00:16:00,
2013-08-23 17:21:00,88.7,55.1,29.73,WNW,292,6.9,6.9,32,0.00,CLR,FEW,0.02,WeatherDisplay:10.37,2013-08-24 00:21:00,
2013-08-23 17:26:00,88.5,54.9,29.73,NW,315,8.1,8.1,32,0.00,CLR,FEW,0.02,WeatherDisplay:10.37,2013-08-24 00:26:00,
2013-08-23 17:31:00,88.2,55.4,29.73,WNW,292,5.8,5.8,33,0.00,CLR,FEW,0.02,WeatherDisplay:10.37,2013-08-24 00:31:00,
2013-08-23 17:36:00,88.0,55.3,29.73,WNW,292,4.7,4.7,33,0.00,CLR,FEW,0.02,WeatherDisplay:10.37,2013-08-24 00:36:00,
2013-08-23 17:41:00,87.4,54.8,29.73,WNW,292,8.1,8.1,33,0.00,CLR,FEW,0.02,WeatherDisplay:10.37,2013-08-24 00:41:00,
2013-08-23 17:46:00,87.4,54.8,29.73,NW,315,6.9,6.9,33,0.00,CLR,FEW,0.02,WeatherDisplay:10.37,2013-08-24 00:46:00,
2013-08-23 17:51:00,87.4,54.8,29.73,NNW,338,10.4,10.4,33,0.00,CLR,FEW,0.02,WeatherDisplay:10.37,2013-08-24 00:51:00,
2013-08-23 17:56:00,87.4,55.6,29.73,West,270,8.0,8.0,34,0.00,CLR,FEW,0.02,WeatherDisplay:10.37,2013-08-24 00:56:00,
2013-08-23 18:01:00,87.4,55.6,29.73,West,270,7.4,7.4,34,0.00,CLR,FEW,0.02,WeatherDisplay:10.37,2013-08-24 01:01:00,
2013-08-23 18:06:00,87.6,55.0,29.74,WNW,292,6.9,7.4,33,0.00,CLR,FEW,0.02,WeatherDisplay:10.37,2013-08-24 01:06:00,
2013-08-23 18:11:00,87.6,55.0,29.74,WNW,292,7.4,7.4,33,0.00,CLR,FEW,0.02,WeatherDisplay:10.37,2013-08-24 01:11:00,
2013-08-23 18:16:00,87.6,55.0,29.74,WNW,292,6.9,6.9,33,0.00,CLR,FEW,0.02,WeatherDisplay:10.37,2013-08-24 01:16:00,
2013-08-23 18:21:00,87.6,55.0,29.73,West,270,8.1,8.1,33,0.00,CLR,FEW,0.02,WeatherDisplay:10.37,2013-08-24 01:21:00,
2013-08-23 18:26:00,87.4,54.8,29.74,NW,315,8.1,8.1,33,0.00,CLR,FEW,0.02,WeatherDisplay:10.37,2013-08-24 01:26:00,
2013-08-23 18:31:00,87.4,54.8,29.74,NW,315,8.1,8.1,33,0.00,CLR,FEW,0.02,WeatherDisplay:10.37,2013-08-24 01:31:00,
2013-08-23 18:36:00,87.1,54.5,29.74,West,270,5.8,5.8,33,0.00,CLR,FEW,0.02,WeatherDisplay:10.37,2013-08-24 01:36:00,
2013-08-23 18:41:00,86.5,54.0,29.74,NNW,338,5.8,5.8,33,0.00,CLR,FEW,0.02,WeatherDisplay:10.37,2013-08-24 01:41:00,
2013-08-23 18:46:00,86.4,53.9,29.74,WNW,292,6.9,6.9,33,0.00,CLR,FEW,0.02,WeatherDisplay:10.37,2013-08-24 01:46:00,
2013-08-23 18:51:00,85.8,53.4,29.74,West,270,0.0,0.0,33,0.00,CLR,FEW,0.02,WeatherDisplay:10.37,2013-08-24 01:51:00,
2013-08-23 18:56:00,85.6,54.0,29.74,NW,315,4.6,4.6,34,0.00,CLR,FEW,0.02,WeatherDisplay:10.37,2013-08-24 01:56:00,
2013-08-23 19:01:00,85.3,53.7,29.74,NW,315,0.0,0.0,34,0.00,CLR,FEW,0.02,WeatherDisplay:10.37,2013-08-24 02:01:00,
2013-08-23 19:06:00,84.9,53.4,29.74,NW,315,0.0,0.0,34,0.00,CLR,FEW,0.02,WeatherDisplay:10.37,2013-08-24 02:06:00,
2013-08-23 19:11:00,84.6,53.1,29.74,NW,315,0.0,0.0,34,0.00,CLR,FEW,0.02,WeatherDisplay:10.37,2013-08-24 02:11:00,
2013-08-23 19:16:00,84.0,53.4,29.74,NW,315,3.5,3.5,35,0.00,CLR,FEW,0.02,WeatherDisplay:10.37,2013-08-24 02:16:00,
2013-08-23 19:21:00,83.7,53.1,29.74,WNW,292,0.0,0.0,35,0.00,CLR,FEW,0.02,WeatherDisplay:10.37,2013-08-24 02:21:00,
2013-08-23 19:26:00,83.3,52.8,29.74,WNW,292,0.0,0.0,35,0.00,CLR,FEW,0.02,WeatherDisplay:10.37,2013-08-24 02:26:00,
2013-08-23 19:31:00,82.9,53.2,29.75,NW,315,0.0,0.0,36,0.00,CLR,FEW,0.02,WeatherDisplay:10.37,2013-08-24 02:31:00,
2013-08-23 19:36:00,82.6,54.4,29.74,NNW,338,0.0,0.0,38,0.00,CLR,FEW,0.02,WeatherDisplay:10.37,2013-08-24 02:36:00,
2013-08-23 19:41:00,81.5,53.4,29.74,NNW,338,0.0,0.0,38,0.00,CLR,FEW,0.02,WeatherDisplay:10.37,2013-08-24 02:41:00,
2013-08-23 19:46:00,81.3,53.3,29.74,NNW,338,0.0,0.0,38,0.00,CLR,FEW,0.02,WeatherDisplay:10.37,2013-08-24 02:46:00,
2013-08-23 19:51:00,80.8,53.5,29.74,NNW,338,26.5,0.0,39,0.00,CLR,FEW,0.02,WeatherDisplay:10.37,2013-08-24 02:51:00,
2013-08-23 19:56:00,80.4,53.2,29.75,NNW,338,0.0,0.0,39,0.00,CLR,FEW,0.02,WeatherDisplay:10.37,2013-08-24 02:56:00,
2013-08-23 20:01:00,79.7,53.2,29.75,NNW,338,0.0,0.0,40,0.00,CLR,FEW,0.02,WeatherDisplay:10.37,2013-08-24 03:01:00,
2013-08-23 20:06:00,79.3,52.9,29.75,NNW,338,0.0,0.0,40,0.00,CLR,FEW,0.02,WeatherDisplay:10.37,2013-08-24 03:06:00,
2013-08-23 20:11:00,78.6,52.3,29.75,NNW,338,0.0,0.0,40,0.00,CLR,FEW,0.02,WeatherDisplay:10.37,2013-08-24 03:11:00,
2013-08-23 20:16:00,78.3,52.6,29.76,NNW,338,0.0,0.0,41,0.00,CLR,FEW,0.02,WeatherDisplay:10.37,2013-08-24 03:16:00,
2013-08-23 20:21:00,77.5,52.6,29.76,NNW,338,0.0,0.0,42,0.00,CLR,FEW,0.02,WeatherDisplay:10.37,2013-08-24 03:21:00,
2013-08-23 20:26:00,76.8,52.6,29.76,NNW,338,0.0,0.0,43,0.00,CLR,FEW,0.02,WeatherDisplay:10.37,2013-08-24 03:26:00,
2013-08-23 20:31:00,76.3,52.8,29.76,NNW,338,0.0,0.0,44,0.00,CLR,FEW,0.02,WeatherDisplay:10.37,2013-08-24 03:31:00,
2013-08-23 20:36:00,75.9,52.4,29.77,NNW,338,0.0,0.0,44,0.00,CLR,FEW,0.02,WeatherDisplay:10.37,2013-08-24 03:36:00,
2013-08-23 20:41:00,75.4,53.2,29.77,NNW,338,0.0,0.0,46,0.00,CLR,FEW,0.02,WeatherDisplay:10.37,2013-08-24 03:41:00,
2013-08-23 20:46:00,74.8,53.8,29.77,NNW,338,0.0,0.0,48,0.00,CLR,FEW,0.02,WeatherDisplay:10.37,2013-08-24 03:46:00,
2013-08-23 20:51:00,74.5,54.1,29.78,NNW,338,0.0,0.0,49,0.00,CLR,FEW,0.02,WeatherDisplay:10.37,2013-08-24 03:51:00,
2013-08-23 20:56:00,73.8,53.4,29.78,NNW,338,0.0,0.0,49,0.00,CLR,FEW,0.02,WeatherDisplay:10.37,2013-08-24 03:56:00,
2013-08-23 21:01:00,73.6,53.8,29.78,NNW,338,0.0,0.0,50,0.00,CLR,FEW,0.02,WeatherDisplay:10.37,2013-08-24 04:01:00,
2013-08-23 21:06:00,72.9,53.7,29.79,NNW,338,0.0,0.0,51,0.00,CLR,FEW,0.02,WeatherDisplay:10.37,2013-08-24 04:06:00,
2013-08-23 21:11:00,72.7,54.0,29.79,NNW,338,0.0,0.0,52,0.00,CLR,FEW,0.02,WeatherDisplay:10.37,2013-08-24 04:11:00,
2013-08-23 21:16:00,72.3,54.2,29.79,NNW,338,0.0,0.0,53,0.00,CLR,FEW,0.02,WeatherDisplay:10.37,2013-08-24 04:16:00,
2013-08-23 21:21:00,72.1,54.6,29.79,NNW,338,0.0,0.0,54,0.00,CLR,FEW,0.02,WeatherDisplay:10.37,2013-08-24 04:21:00,
2013-08-23 21:26:00,72.0,54.9,29.80,NNW,338,0.0,0.0,55,0.00,CLR,FEW,0.02,WeatherDisplay:10.37,2013-08-24 04:26:00,
2013-08-23 21:31:00,71.4,54.9,29.80,NNW,338,0.0,0.0,56,0.00,CLR,FEW,0.02,WeatherDisplay:10.37,2013-08-24 04:31:00,
2013-08-23 21:36:00,71.1,54.6,29.80,NNW,338,0.0,0.0,56,0.00,CLR,FEW,0.02,WeatherDisplay:10.37,2013-08-24 04:36:00,
2013-08-23 21:41:00,70.9,54.9,29.80,NNW,338,0.0,0.0,57,0.00,CLR,FEW,0.02,WeatherDisplay:10.37,2013-08-24 04:41:00,
2013-08-23 21:46:00,70.5,54.1,29.81,NNW,338,0.0,0.0,56,0.00,CLR,FEW,0.02,WeatherDisplay:10.37,2013-08-24 04:46:00,
2013-08-23 21:51:00,70.2,54.2,29.80,NNW,338,0.0,0.0,57,0.00,CLR,FEW,0.02,WeatherDisplay:10.37,2013-08-24 04:51:00,
2013-08-23 21:56:00,70.0,54.0,29.80,NNW,338,0.0,0.0,57,0.00,CLR,FEW,0.02,WeatherDisplay:10.37,2013-08-24 04:56:00,
2013-08-23 22:01:00,69.6,53.7,29.80,NNW,338,0.0,0.0,57,0.00,CLR,FEW,0.02,WeatherDisplay:10.37,2013-08-24 05:01:00,
2013-08-23 22:06:00,69.4,54.0,29.80,NNW,338,0.0,0.0,58,0.00,CLR,FEW,0.02,WeatherDisplay:10.37,2013-08-24 05:06:00,
2013-08-23 22:11:00,69.3,54.3,29.80,NNW,338,0.0,0.0,59,0.00,CLR,FEW,0.02,WeatherDisplay:10.37,2013-08-24 05:11:00,
2013-08-23 22:16:00,68.7,53.8,29.80,NNW,338,0.0,0.0,59,0.00,CLR,FEW,0.02,WeatherDisplay:10.37,2013-08-24 05:16:00,
2013-08-23 22:21:00,68.5,53.6,29.80,NNW,338,0.0,0.0,59,0.00,CLR,FEW,0.02,WeatherDisplay:10.37,2013-08-24 05:21:00,
2013-08-23 22:26:00,68.2,53.8,29.80,NNW,338,0.0,0.0,60,0.00,CLR,FEW,0.02,WeatherDisplay:10.37,2013-08-24 05:26:00,
2013-08-23 22:31:00,68.2,54.7,29.80,NNW,338,0.0,0.0,62,0.00,CLR,FEW,0.02,WeatherDisplay:10.37,2013-08-24 05:31:00,
2013-08-23 22:36:00,68.0,54.5,29.80,NNW,338,0.0,0.0,62,0.00,CLR,FEW,0.02,WeatherDisplay:10.37,2013-08-24 05:36:00,
2013-08-23 22:41:00,67.8,54.3,29.81,NNW,338,0.0,0.0,62,0.00,CLR,FEW,0.02,WeatherDisplay:10.37,2013-08-24 05:41:00,
2013-08-23 22:46:00,67.3,53.4,29.81,NNW,338,0.0,0.0,61,0.00,CLR,FEW,0.02,WeatherDisplay:10.37,2013-08-24 05:46:00,
2013-08-23 22:51:00,66.9,53.0,29.81,NNW,338,0.0,0.0,61,0.00,CLR,FEW,0.02,WeatherDisplay:10.37,2013-08-24 05:51:00,
2013-08-23 22:56:00,66.9,53.5,29.81,NNW,338,0.0,0.0,62,0.00,CLR,FEW,0.02,WeatherDisplay:10.37,2013-08-24 05:56:00,
2013-08-23 23:01:00,66.7,53.3,29.82,NNW,338,0.0,0.0,62,0.00,CLR,FEW,0.02,WeatherDisplay:10.37,2013-08-24 06:01:00,
2013-08-23 23:06:00,66.6,53.6,29.82,NNW,338,0.0,0.0,63,0.00,CLR,FEW,0.02,WeatherDisplay:10.37,2013-08-24 06:06:00,
2013-08-23 23:11:00,66.4,53.4,29.82,NNW,338,0.0,0.0,63,0.00,CLR,FEW,0.02,WeatherDisplay:10.37,2013-08-24 06:11:00,
2013-08-23 23:16:00,66.0,53.1,29.82,NNW,338,0.0,0.0,63,0.00,CLR,FEW,0.02,WeatherDisplay:10.37,2013-08-24 06:16:00,
2013-08-23 23:21:00,66.0,53.5,29.82,NNW,338,0.0,0.0,64,0.00,CLR,FEW,0.02,WeatherDisplay:10.37,2013-08-24 06:21:00,
2013-08-23 23:26:00,66.0,53.5,29.82,NNW,338,0.0,0.0,64,0.00,CLR,FEW,0.02,WeatherDisplay:10.37,2013-08-24 06:26:00,
2013-08-23 23:31:00,65.7,53.1,29.82,NNW,338,0.0,0.0,64,0.00,CLR,FEW,0.02,WeatherDisplay:10.37,2013-08-24 06:31:00,
2013-08-23 23:36:00,65.5,53.0,29.82,NNW,338,0.0,0.0,64,0.00,CLR,FEW,0.02,WeatherDisplay:10.37,2013-08-24 06:36:00,
2013-08-23 23:41:00,65.5,53.0,29.82,NNW,338,0.0,0.0,64,0.00,CLR,FEW,0.02,WeatherDisplay:10.37,2013-08-24 06:41:00,
2013-08-23 23:46:00,65.1,52.6,29.82,NNW,338,0.0,0.0,64,0.00,CLR,FEW,0.02,WeatherDisplay:10.37,2013-08-24 06:46:00,
2013-08-23 23:51:00,64.9,52.9,29.82,NNW,338,0.0,0.0,65,0.00,CLR,FEW,0.02,WeatherDisplay:10.37,2013-08-24 06:51:00,
2013-08-23 23:56:00,64.8,52.7,29.82,NNW,338,0.0,0.0,65,0.00,CLR,FEW,0.02,WeatherDisplay:10.37,2013-08-24 06:56:00,